Regional Weather Roundup
Issued by NWS

Home | Current Version | Previous Version | Text Only | Print | Product List | Glossary Off
Versions: 1 2 3 4 5 6 7 8 9 10 11 12 13 14 15 16 17 18 19 20 21 22 23 24 25 26 27 28 29 30 31 32 33 34 35 36 37 38 39 40 41 42 43 44 45 46 47 48 49 50

000
ASUS43 KFSD 301910
RWRSD

WEATHER ROUNDUP FOR SOUTH DAKOTA
NATIONAL WEATHER SERVICE SIOUX FALLS SD
200 PM CDT MON MAR 30 2015

NOTE: "FAIR" INDICATES FEW OR NO CLOUDS BELOW 12,000 FEET WITH NO
SIGNIFICANT WEATHER AND/OR OBSTRUCTIONS TO VISIBILITY.


SDZ001>005-009-010-012>017-302000-
NORTHWEST AND NORTH CENTRAL SOUTH DAKOTA

CITY           SKY/WX    TMP DP  RH WIND       PRES   REMARKS
BUFFALO          N/A     66  28  24 NW26G36   29.96R
FAITH            N/A     68  26  20 NW26G35   29.98S
MOBRIDGE       SUNNY     71  35  26 NW24G32   29.86S
$$

SDZ012>016-024>037-041>051-057-063-072>074-302000-
SOUTHWEST AND SOUTH CENTRAL SOUTH DAKOTA

CITY           SKY/WX    TMP DP  RH WIND       PRES   REMARKS
RAPID CTY ARPT MOSUNNY   66  30  26 N22G31    30.05S
PIERRE         PTSUNNY   69  32  25 NW28G35   29.92F
CUSTER         SUNNY     60  19  20 W14G26    30.11S
ELLSWORTH AFB  PTSUNNY   64  30  28 N18G29    30.05S
PHILIP         PTSUNNY   68  27  21 NW22G33   30.00S
PINE RIDGE     MOSUNNY   67  27  22 VRB5      30.08S
SPEARFISH      FAIR      61  30  31 NW17G29   30.10S
WINNER         FAIR      74  28  18 NW23G33   29.97F
$$

SDZ004>011-016>023-039-040-302000-
NORTHEAST SOUTH DAKOTA

CITY           SKY/WX    TMP DP  RH WIND       PRES   REMARKS
ABERDEEN       SUNNY     72  34  24 W24G32    29.83R
WATERTOWN      SUNNY     69  30  23 W20G35    29.82F
SISSETON         N/A     69  34  27 NW22G28   29.77S
$$

SDZ017-020-022-023-036>040-048>070-302000-
SOUTHEAST SOUTH DAKOTA

CITY           SKY/WX    TMP DP  RH WIND       PRES   REMARKS
SIOUX FALLS    PTSUNNY   73  26  17 NW17G24   29.87F
HURON          PTSUNNY   72  31  22 NW24G36   29.86F
CHAMBERLAIN    MOSUNNY   68  31  25 W22G28    29.94S
MITCHELL       MOSUNNY   74  25  16 W18G26    29.89F
YANKTON        PTSUNNY   73  28  19 W20       29.90F
$$

ABBREVIATIONS USED IN REMARKS
   TC - TEMPERATURE IN CELSIUS
  WCI - WIND CHILL INDEX
   HX - HEAT INDEX
  VSB - VISIBILITY




USA.gov is the U.S. government's official web portal to all federal, state and local government web resources and services.